タットル彗星

8P/Tuttle (2021)

English version
Home page
Updated on September 18, 2021

---------------------------------------------------------------------

・ プロフィール

・ 写真集

・ 軌道要素

Epoch 2021 July 5.0 TT = JDT 2459400.5
T 2021 Aug. 27.73756 TT                                 Rudenko
q   1.0260100            (2000.0)            P               Q
n   0.07228579     Peri.  207.48895     -0.26849446     -0.50829711
a   5.7073447      Node   270.20414     +0.96326276     -0.13641471
e   0.8202299      Incl.   54.91122     +0.00596459     -0.85030881
P  13.6
From 204 observations 2008 Feb. 12-2021 June 8, mean residual 0".5.
     Nongravitational parameters A1 = +0.38, A2 = +0.1905.

・ 星図

・ 光度変化

        H = 13.5  G = 0.15                       [    ,-205]  (              〜2021年 2月 3日)
        m1 = 7.0 + 5 logΔ + 20.0 log r(t - 25)  [-205,    ]  (2021年 2月 3日〜              )

---------------------------------------------------------------------

軌道要素はM.P.E.C. 2021-N06に掲載されたものです。
星図はステラナビゲータ Ver.10 (アストロアーツ) で作成したものです。
光度グラフはComet for Windowsで作成したものです。

---------------------------------------------------------------------

Copyright(C) Seiichi Yoshida (comet@aerith.net). All rights reserved.